Weather History for Monticello, KY

Change the Weather History Date:

Wednesday, November 21, 2012

  Actual Average Record
Temperature  
Mean Temperature 48 °F -  
Max Temperature 64 °F 56 °F 75 °F (1979)
Min Temperature 31 °F 34 °F 10 °F (2008)
Degree Days  
Heating Degree Days 17    
Moisture  
Dew Point 38 °F    
Average Humidity 84    
Maximum Humidity 100    
Minimum Humidity 45    
Precipitation  
Precipitation 0.00 in - - ()
Sea Level Pressure  
Sea Level Pressure 30.22 in    
Wind  
Wind Speed 1 mph (North)    
Max Wind Speed 7 mph    
Max Gust Speed -    
Visibility 8 miles    
Events      
Averages and records for this station are not official NWS values.
T = Trace of Precipitation, MM = Missing Value Source: NWS Daily Summary

Daily Weather History Graph

Daily Weather History Graph

Search for Another Location

Airport:

Trip Planner

Search our weather history database for the weather conditions in past years. The results will help you decide how hot, cold, wet, or windy it might be!

Date:

Astronomy

Nov. 21, 2012 Rise Set
Actual Time 6:24 AM CST 4:26 PM CST
Civil Twilight 5:56 AM CST 4:54 PM CST
Nautical Twilight 5:24 AM CST 5:25 PM CST
Astronomical Twilight 4:53 AM CST 5:56 PM CST
Moon 12:34 PM CST (11/21) No Moon Set
Length of Visible Light 10h 57m
Length of Day
10h 01m
First Quarter, 62% of the Moon is Illuminated
Nov 21
First Quarter
Nov 28
Full
Dec 6
Last Quarter
Dec 13
New
Dec 19
First Quarter

Hourly Weather History & Observations

Time (CST) Temp. Dew Point Humidity Pressure Visibility Wind Dir Wind Speed Gust Speed Precip Events Conditions
12:56 AM 39.9 °F 38.8 °F 96% 30.14 in 10.0 mi Calm Calm - N/A   Clear
1:56 AM 37.9 °F 36.9 °F 96% 30.14 in 10.0 mi Calm Calm - N/A   Clear
2:56 AM 36.9 °F 36.9 °F 100% 30.16 in 10.0 mi Calm Calm - N/A   Clear
3:56 AM 34.9 °F 34.9 °F 100% 30.17 in 10.0 mi Calm Calm - N/A   Clear
4:56 AM 34.0 °F 34.0 °F 100% 30.19 in 10.0 mi Calm Calm - N/A   Clear
5:56 AM 34.0 °F 32.9 °F 96% 30.21 in 10.0 mi Calm Calm - N/A   Clear
6:10 AM 32.0 °F 32.0 °F 100% 30.19 in 1.8 mi Calm Calm - N/A   Clear
6:20 AM 32.0 °F 32.0 °F 100% 30.19 in 3.0 mi Calm Calm - N/A   Clear
6:56 AM 34.0 °F 34.0 °F 100% 30.23 in 8.0 mi Calm Calm - N/A   Clear
7:56 AM 43.0 °F 41.9 °F 96% 30.24 in 8.0 mi Calm Calm - N/A   Clear
8:56 AM 50.9 °F 43.9 °F 77% 30.25 in 10.0 mi Calm Calm - N/A   Clear
9:56 AM 57.9 °F 45.9 °F 64% 30.25 in 10.0 mi Calm Calm - N/A   Clear
10:56 AM 61.9 °F 45.0 °F 54% 30.24 in 10.0 mi North 3.5 mph - N/A   Clear
11:56 AM 63.9 °F 43.0 °F 47% 30.22 in 9.0 mi North 6.9 mph - N/A   Clear
12:56 PM 64.9 °F 43.0 °F 45% 30.21 in 10.0 mi North 3.5 mph - N/A   Clear
2:56 PM 64.9 °F 43.0 °F 45% 30.21 in 10.0 mi North 5.8 mph - N/A   Clear
3:56 PM 61.0 °F 41.9 °F 49% 30.22 in 10.0 mi Calm Calm - N/A   Clear
4:56 PM 47.8 °F 41.0 °F 77% 30.24 in 10.0 mi Calm Calm - N/A   Clear
5:56 PM 41.0 °F 36.0 °F 82% 30.25 in 10.0 mi Calm Calm - N/A   Clear
6:56 PM 39.9 °F 36.9 °F 89% 30.27 in 10.0 mi Calm Calm - N/A   Clear
7:56 PM 36.9 °F 34.9 °F 93% 30.26 in 10.0 mi Calm Calm - N/A   Clear
8:56 PM 34.0 °F 32.9 °F 96% 30.26 in 5.0 mi Calm Calm - N/A   Clear
9:56 PM 32.9 °F 32.9 °F 100% 30.26 in 5.0 mi Calm Calm - N/A   Clear
10:56 PM 34.0 °F 32.9 °F 96% 30.25 in 6.0 mi Calm Calm - N/A   Clear
11:56 PM 31.1 °F 31.1 °F 100% 30.25 in 5.0 mi Calm Calm - N/A   Clear